Location: Nelson
(41.2830°S, 173.2830°E)
Time: 18:43:50
(UTC+12:00)

IRIDIUM 106 - Pass Details

Date: 14 May 2021
Orbit: 776 x 779 km, 86.4° (Epoch: 19 June)

Event Time Altitude Azimuth Distance (km) Brightness Sun altitude
Rises 18:18:11 0° 183° (S) 3,299 7.5 -11.3°
Reaches altitude 10° 18:20:34 10° 182° (S) 2,364 6.7 -11.7°
Maximum altitude 18:25:53 86° 94° (E) 796 4.3 -12.7°
Drops below altitude 10° 18:31:08 10° 3° (N) 2,334 6.9 -13.7°
Sets 18:33:27 0° 2° (N) 3,254 7.7 -14.1°
